contact:dominique.lefevre@mio.osupytheas.fr, maurice.libes@osupytheas.fr, didier.mallarino@osupytheas.fr
Project:EMSO http://www.emso-fr.org/EMSO-France
Depth: 2436.0 m
Title:EMSO Ligure Ouest : Data MII capteur MICROCAT
DateTime_Computer,Latitude,Longitude,Temperature,Conductivity,Pressure,DateTime_Instrument
DateTime_Computer,Latitude,Longitude,degC,S m-1,dbar,DateTime_Instrument
2020-10-07T00:00:23Z,42.805,6.029,13.2972,4.59996,2470.133,2020-10-07T02:01:17Z
2020-10-07T00:03:26Z,42.805,6.029,13.2973,4.59987,2470.171,2020-10-07T02:04:20Z
2020-10-07T00:06:29Z,42.805,6.029,13.2973,4.59982,2470.171,2020-10-07T02:07:23Z
2020-10-07T00:09:33Z,42.805,6.029,13.2970,4.59983,2470.133,2020-10-07T02:10:26Z
2020-10-07T00:12:36Z,42.805,6.029,13.2973,4.59986,2470.171,2020-10-07T02:13:29Z
2020-10-07T00:15:39Z,42.805,6.029,13.2971,4.59986,2470.156,2020-10-07T02:16:32Z
2020-10-07T00:18:42Z,42.805,6.029,13.2968,4.59999,2470.171,2020-10-07T02:19:35Z
2020-10-07T00:21:45Z,42.805,6.029,13.2976,4.59986,2470.147,2020-10-07T02:22:38Z
2020-10-07T00:24:48Z,42.805,6.029,13.2972,4.59987,2470.147,2020-10-07T02:25:42Z
2020-10-07T00:27:51Z,42.805,6.029,13.2967,4.59991,2470.156,2020-10-07T02:28:45Z
2020-10-07T00:30:54Z,42.805,6.029,13.2968,4.60000,2470.156,2020-10-07T02:31:48Z
2020-10-07T00:33:57Z,42.805,6.029,13.2974,4.59997,2470.156,2020-10-07T02:34:51Z
2020-10-07T00:37:01Z,42.805,6.029,13.2974,4.59993,2470.147,2020-10-07T02:37:54Z
2020-10-07T00:40:04Z,42.805,6.029,13.2974,4.59986,2470.133,2020-10-07T02:40:57Z
2020-10-07T00:43:07Z,42.805,6.029,13.2967,4.59984,2470.11,2020-10-07T02:44:00Z
2020-10-07T00:46:10Z,42.805,6.029,13.2976,4.59987,2470.124,2020-10-07T02:47:03Z
2020-10-07T00:49:13Z,42.805,6.029,13.2970,4.59983,2470.171,2020-10-07T02:50:06Z
2020-10-07T00:52:16Z,42.805,6.029,13.2971,4.59986,2470.133,2020-10-07T02:53:10Z
2020-10-07T00:55:19Z,42.805,6.029,13.2976,4.59986,2470.133,2020-10-07T02:56:13Z
2020-10-07T00:58:22Z,42.805,6.029,13.2972,4.59986,2470.124,2020-10-07T02:59:16Z
2020-10-07T01:01:26Z,42.805,6.029,13.2973,4.59982,2470.11,2020-10-07T03:02:19Z
2020-10-07T01:04:29Z,42.805,6.029,13.2972,4.59981,2470.11,2020-10-07T03:05:22Z
2020-10-07T01:07:32Z,42.805,6.029,13.2970,4.59989,2470.073,2020-10-07T03:08:25Z
2020-10-07T01:10:35Z,42.805,6.029,13.2976,4.59985,2470.1,2020-10-07T03:11:28Z
2020-10-07T01:13:38Z,42.805,6.029,13.2974,4.59984,2470.11,2020-10-07T03:14:31Z
2020-10-07T01:16:41Z,42.805,6.029,13.2971,4.59986,2470.11,2020-10-07T03:17:35Z
2020-10-07T01:19:44Z,42.805,6.029,13.2969,4.59984,2470.11,2020-10-07T03:20:38Z
2020-10-07T01:22:47Z,42.805,6.029,13.2970,4.59982,2470.11,2020-10-07T03:23:41Z
2020-10-07T01:25:50Z,42.805,6.029,13.2973,4.59981,2470.11,2020-10-07T03:26:44Z
2020-10-07T01:28:54Z,42.805,6.029,13.2971,4.59981,2470.077,2020-10-07T03:29:47Z
2020-10-07T01:31:57Z,42.805,6.029,13.2971,4.59988,2470.147,2020-10-07T03:32:50Z
2020-10-07T01:35:00Z,42.805,6.029,13.2974,4.59983,2470.11,2020-10-07T03:35:53Z
2020-10-07T01:38:03Z,42.805,6.029,13.2974,4.59982,2470.087,2020-10-07T03:38:56Z
2020-10-07T01:41:06Z,42.805,6.029,13.2974,4.59985,2470.087,2020-10-07T03:42:00Z
2020-10-07T01:44:09Z,42.805,6.029,13.2971,4.59982,2470.063,2020-10-07T03:45:03Z
2020-10-07T01:47:12Z,42.805,6.029,13.2974,4.59981,2470.133,2020-10-07T03:48:06Z
2020-10-07T01:50:15Z,42.805,6.029,13.2971,4.59980,2470.11,2020-10-07T03:51:09Z
2020-10-07T01:53:19Z,42.805,6.029,13.2971,4.59983,2470.147,2020-10-07T03:54:12Z
2020-10-07T01:56:22Z,42.805,6.029,13.2972,4.59981,2470.087,2020-10-07T03:57:15Z
2020-10-07T01:59:25Z,42.805,6.029,13.2975,4.59981,2470.124,2020-10-07T04:00:18Z
2020-10-07T02:02:28Z,42.805,6.029,13.2972,4.59981,2470.063,2020-10-07T04:03:21Z
2020-10-07T02:05:31Z,42.805,6.029,13.2970,4.59981,2470.11,2020-10-07T04:06:24Z
2020-10-07T02:08:34Z,42.805,6.029,13.2975,4.59980,2470.1,2020-10-07T04:09:28Z
2020-10-07T02:11:37Z,42.805,6.029,13.2971,4.59979,2470.063,2020-10-07T04:12:31Z
2020-10-07T02:14:40Z,42.805,6.029,13.2971,4.59979,2470.063,2020-10-07T04:15:34Z
2020-10-07T02:17:43Z,42.805,6.029,13.2974,4.59980,2470.077,2020-10-07T04:18:37Z
2020-10-07T02:20:47Z,42.805,6.029,13.2976,4.59980,2470.1,2020-10-07T04:21:40Z
2020-10-07T02:23:50Z,42.805,6.029,13.2972,4.59980,2470.11,2020-10-07T04:24:43Z
2020-10-07T02:26:53Z,42.805,6.029,13.2974,4.59978,2470.1,2020-10-07T04:27:46Z
2020-10-07T02:29:56Z,42.805,6.029,13.2969,4.59990,2470.063,2020-10-07T04:30:49Z
2020-10-07T02:32:59Z,42.805,6.029,13.2974,4.59984,2470.1,2020-10-07T04:33:52Z
2020-10-07T02:36:02Z,42.805,6.029,13.2974,4.59981,2470.087,2020-10-07T04:36:56Z
2020-10-07T02:39:05Z,42.805,6.029,13.2971,4.59978,2470.087,2020-10-07T04:39:59Z
2020-10-07T02:42:08Z,42.805,6.029,13.2974,4.59985,2470.1,2020-10-07T04:43:02Z
2020-10-07T02:45:12Z,42.805,6.029,13.2972,4.59980,2470.063,2020-10-07T04:46:05Z
2020-10-07T02:48:15Z,42.805,6.029,13.2969,4.59981,2470.063,2020-10-07T04:49:08Z
2020-10-07T02:51:18Z,42.805,6.029,13.2974,4.59982,2470.077,2020-10-07T04:52:11Z
2020-10-07T02:54:21Z,42.805,6.029,13.2976,4.59981,2470.063,2020-10-07T04:55:14Z
2020-10-07T02:57:24Z,42.805,6.029,13.2973,4.59980,2470.087,2020-10-07T04:58:17Z
2020-10-07T03:00:27Z,42.805,6.029,13.2973,4.59978,2470.087,2020-10-07T05:01:21Z
2020-10-07T03:03:30Z,42.805,6.029,13.2974,4.59981,2470.087,2020-10-07T05:04:24Z
2020-10-07T03:06:33Z,42.805,6.029,13.2972,4.59981,2470.063,2020-10-07T05:07:27Z
2020-10-07T03:09:36Z,42.805,6.029,13.2975,4.59981,2470.077,2020-10-07T05:10:30Z
2020-10-07T03:12:40Z,42.805,6.029,13.2972,4.59979,2470.063,2020-10-07T05:13:33Z
2020-10-07T03:15:43Z,42.805,6.029,13.2977,4.59979,2470.11,2020-10-07T05:16:36Z
2020-10-07T03:18:46Z,42.805,6.029,13.2972,4.59981,2470.063,2020-10-07T05:19:39Z
2020-10-07T03:21:49Z,42.805,6.029,13.2974,4.59978,2470.063,2020-10-07T05:22:42Z
2020-10-07T03:24:52Z,42.805,6.029,13.2973,4.59976,2470.053,2020-10-07T05:25:45Z
2020-10-07T03:27:55Z,42.805,6.029,13.2973,4.59978,2470.087,2020-10-07T05:28:49Z
2020-10-07T03:30:58Z,42.805,6.029,13.2976,4.59979,2470.087,2020-10-07T05:31:52Z
2020-10-07T03:34:01Z,42.805,6.029,13.2974,4.59981,2470.087,2020-10-07T05:34:55Z
2020-10-07T03:37:05Z,42.805,6.029,13.2973,4.59982,2470.063,2020-10-07T05:37:58Z
2020-10-07T03:40:08Z,42.805,6.029,13.2977,4.59982,2470.063,2020-10-07T05:41:01Z
2020-10-07T03:43:11Z,42.805,6.029,13.2972,4.59983,2470.11,2020-10-07T05:44:04Z
2020-10-07T03:46:14Z,42.805,6.029,13.2974,4.59982,2470.077,2020-10-07T05:47:07Z
2020-10-07T03:49:17Z,42.805,6.029,13.2971,4.59980,2470.063,2020-10-07T05:50:10Z
2020-10-07T03:52:20Z,42.805,6.029,13.2975,4.59988,2470.063,2020-10-07T05:53:14Z
2020-10-07T03:55:23Z,42.805,6.029,13.2969,4.59980,2470.053,2020-10-07T05:56:17Z
2020-10-07T03:58:26Z,42.805,6.029,13.2974,4.59982,2470.1,2020-10-07T05:59:20Z
2020-10-07T04:01:29Z,42.805,6.029,13.2974,4.59983,2470.063,2020-10-07T06:02:23Z
2020-10-07T04:04:33Z,42.805,6.029,13.2974,4.59981,2470.087,2020-10-07T06:05:26Z
2020-10-07T04:07:36Z,42.805,6.029,13.2972,4.59979,2470.077,2020-10-07T06:08:29Z
2020-10-07T04:10:39Z,42.805,6.029,13.2976,4.59978,2470.1,2020-10-07T06:11:32Z
2020-10-07T04:13:42Z,42.805,6.029,13.2979,4.59978,2470.063,2020-10-07T06:14:35Z
2020-10-07T04:16:45Z,42.805,6.029,13.2976,4.59981,2470.063,2020-10-07T06:17:38Z
2020-10-07T04:19:48Z,42.805,6.029,13.2968,4.59982,2470.077,2020-10-07T06:20:42Z
2020-10-07T04:22:51Z,42.805,6.029,13.2972,4.59979,2470.04,2020-10-07T06:23:45Z
2020-10-07T04:25:54Z,42.805,6.029,13.2970,4.59982,2470.1,2020-10-07T06:26:48Z
2020-10-07T04:28:58Z,42.805,6.029,13.2976,4.59986,2470.087,2020-10-07T06:29:51Z
2020-10-07T04:32:01Z,42.805,6.029,13.2976,4.59981,2470.087,2020-10-07T06:32:54Z
2020-10-07T04:35:04Z,42.805,6.029,13.2973,4.59978,2470.063,2020-10-07T06:35:57Z
2020-10-07T04:38:07Z,42.805,6.029,13.2970,4.59978,2470.063,2020-10-07T06:39:00Z
2020-10-07T04:41:10Z,42.805,6.029,13.2970,4.59983,2470.1,2020-10-07T06:42:03Z
2020-10-07T04:44:13Z,42.805,6.029,13.2973,4.59982,2470.077,2020-10-07T06:45:07Z
2020-10-07T04:47:16Z,42.805,6.029,13.2973,4.59981,2470.063,2020-10-07T06:48:10Z
2020-10-07T04:50:19Z,42.805,6.029,13.2976,4.59981,2470.087,2020-10-07T06:51:13Z
2020-10-07T04:53:22Z,42.805,6.029,13.2972,4.59978,2470.063,2020-10-07T06:54:16Z
2020-10-07T04:56:26Z,42.805,6.029,13.2974,4.59978,2470.1,2020-10-07T06:57:19Z
2020-10-07T04:59:29Z,42.805,6.029,13.2974,4.59981,2470.063,2020-10-07T07:00:22Z
2020-10-07T05:02:32Z,42.805,6.029,13.2971,4.59986,2470.063,2020-10-07T07:03:25Z
2020-10-07T05:05:35Z,42.805,6.029,13.2974,4.59982,2470.087,2020-10-07T07:06:28Z
2020-10-07T05:08:38Z,42.805,6.029,13.2974,4.59979,2470.04,2020-10-07T07:09:31Z
2020-10-07T05:11:41Z,42.805,6.029,13.2977,4.59981,2470.087,2020-10-07T07:12:35Z
2020-10-07T05:14:44Z,42.805,6.029,13.2973,4.59983,2470.04,2020-10-07T07:15:38Z
2020-10-07T05:17:47Z,42.805,6.029,13.2977,4.59981,2470.077,2020-10-07T07:18:41Z
2020-10-07T05:20:51Z,42.805,6.029,13.2973,4.59981,2470.063,2020-10-07T07:21:44Z
2020-10-07T05:23:54Z,42.805,6.029,13.2970,4.59981,2470.063,2020-10-07T07:24:47Z
2020-10-07T05:26:57Z,42.805,6.029,13.2970,4.59979,2470.017,2020-10-07T07:27:50Z
2020-10-07T05:30:00Z,42.805,6.029,13.2971,4.59981,2470.1,2020-10-07T07:30:53Z
2020-10-07T05:33:03Z,42.805,6.029,13.2976,4.59982,2470.087,2020-10-07T07:33:56Z
2020-10-07T05:36:06Z,42.805,6.029,13.2976,4.59982,2470.077,2020-10-07T07:37:00Z
2020-10-07T05:39:09Z,42.805,6.029,13.2972,4.59983,2470.063,2020-10-07T07:40:03Z
2020-10-07T05:42:12Z,42.805,6.029,13.2972,4.59983,2470.053,2020-10-07T07:43:06Z
2020-10-07T05:45:15Z,42.805,6.029,13.2975,4.59981,2470.087,2020-10-07T07:46:09Z
2020-10-07T05:48:19Z,42.805,6.029,13.2972,4.59984,2470.063,2020-10-07T07:49:12Z
2020-10-07T05:51:22Z,42.805,6.029,13.2972,4.59984,2470.087,2020-10-07T07:52:15Z
2020-10-07T05:54:25Z,42.805,6.029,13.2974,4.59983,2470.11,2020-10-07T07:55:18Z
2020-10-07T05:57:28Z,42.805,6.029,13.2968,4.59988,2470.087,2020-10-07T07:58:21Z
2020-10-07T06:00:31Z,42.805,6.029,13.2974,4.59987,2470.11,2020-10-07T08:01:24Z
2020-10-07T06:03:34Z,42.805,6.029,13.2974,4.59983,2470.124,2020-10-07T08:04:28Z
2020-10-07T06:06:37Z,42.805,6.029,13.2978,4.59991,2470.11,2020-10-07T08:07:31Z
2020-10-07T06:09:40Z,42.805,6.029,13.2973,4.59991,2470.124,2020-10-07T08:10:34Z
2020-10-07T06:12:43Z,42.805,6.029,13.2971,4.59985,2470.1,2020-10-07T08:13:37Z
2020-10-07T06:15:47Z,42.805,6.029,13.2973,4.59985,2470.124,2020-10-07T08:16:40Z
2020-10-07T06:18:50Z,42.805,6.029,13.2973,4.59986,2470.087,2020-10-07T08:19:43Z
2020-10-07T06:21:53Z,42.805,6.029,13.2973,4.59984,2470.124,2020-10-07T08:22:46Z
2020-10-07T06:24:56Z,42.805,6.029,13.2971,4.59984,2470.133,2020-10-07T08:25:49Z
2020-10-07T06:27:59Z,42.805,6.029,13.2974,4.59985,2470.133,2020-10-07T08:28:52Z
2020-10-07T06:31:02Z,42.805,6.029,13.2970,4.59978,2470.11,2020-10-07T08:31:56Z
2020-10-07T06:34:05Z,42.805,6.029,13.2974,4.59978,2470.133,2020-10-07T08:34:59Z
2020-10-07T06:37:08Z,42.805,6.029,13.2972,4.59981,2470.124,2020-10-07T08:38:02Z
2020-10-07T06:40:12Z,42.805,6.029,13.2974,4.59978,2470.133,2020-10-07T08:41:05Z
2020-10-07T06:43:15Z,42.805,6.029,13.2974,4.59978,2470.133,2020-10-07T08:44:08Z
2020-10-07T06:46:18Z,42.805,6.029,13.2968,4.59980,2470.133,2020-10-07T08:47:11Z
2020-10-07T06:49:21Z,42.805,6.029,13.2973,4.59978,2470.156,2020-10-07T08:50:14Z
2020-10-07T06:52:24Z,42.805,6.029,13.2971,4.59981,2470.133,2020-10-07T08:53:17Z
2020-10-07T06:55:27Z,42.805,6.029,13.2971,4.59980,2470.156,2020-10-07T08:56:21Z
2020-10-07T06:58:30Z,42.805,6.029,13.2970,4.59980,2470.11,2020-10-07T08:59:24Z
2020-10-07T07:01:33Z,42.805,6.029,13.2972,4.59979,2470.133,2020-10-07T09:02:27Z
2020-10-07T07:04:36Z,42.805,6.029,13.2975,4.59981,2470.156,2020-10-07T09:05:30Z
2020-10-07T07:07:40Z,42.805,6.029,13.2973,4.59978,2470.194,2020-10-07T09:08:33Z
2020-10-07T07:10:43Z,42.805,6.029,13.2974,4.59981,2470.156,2020-10-07T09:11:36Z
2020-10-07T07:13:46Z,42.805,6.029,13.2971,4.59979,2470.133,2020-10-07T09:14:39Z
2020-10-07T07:16:49Z,42.805,6.029,13.2976,4.59978,2470.147,2020-10-07T09:17:42Z
2020-10-07T07:19:52Z,42.805,6.029,13.2971,4.59980,2470.171,2020-10-07T09:20:45Z
2020-10-07T07:22:55Z,42.805,6.029,13.2974,4.59984,2470.194,2020-10-07T09:23:49Z
2020-10-07T07:25:58Z,42.805,6.029,13.2975,4.59983,2470.18,2020-10-07T09:26:52Z
2020-10-07T07:29:01Z,42.805,6.029,13.2975,4.59983,2470.203,2020-10-07T09:29:55Z
2020-10-07T07:32:05Z,42.805,6.029,13.2975,4.59981,2470.171,2020-10-07T09:32:58Z
2020-10-07T07:35:08Z,42.805,6.029,13.2974,4.59986,2470.18,2020-10-07T09:36:01Z
2020-10-07T07:38:11Z,42.805,6.029,13.2970,4.59982,2470.203,2020-10-07T09:39:04Z
2020-10-07T07:41:14Z,42.805,6.029,13.2971,4.59983,2470.203,2020-10-07T09:42:07Z
2020-10-07T07:44:17Z,42.805,6.029,13.2971,4.59981,2470.156,2020-10-07T09:45:10Z
2020-10-07T07:47:20Z,42.805,6.029,13.2972,4.59988,2470.156,2020-10-07T09:48:14Z
2020-10-07T07:50:23Z,42.805,6.029,13.2973,4.59982,2470.227,2020-10-07T09:51:17Z
2020-10-07T07:53:26Z,42.805,6.029,13.2974,4.59981,2470.18,2020-10-07T09:54:20Z
2020-10-07T07:56:29Z,42.805,6.029,13.2976,4.59981,2470.194,2020-10-07T09:57:23Z
2020-10-07T07:59:33Z,42.805,6.029,13.2970,4.59983,2470.203,2020-10-07T10:00:26Z
2020-10-07T08:02:36Z,42.805,6.029,13.2976,4.59981,2470.227,2020-10-07T10:03:29Z
2020-10-07T08:05:39Z,42.805,6.029,13.2973,4.59996,2470.156,2020-10-07T10:06:32Z
2020-10-07T08:08:42Z,42.805,6.029,13.2973,4.59984,2470.217,2020-10-07T10:09:35Z
2020-10-07T08:11:45Z,42.805,6.029,13.2975,4.59987,2470.217,2020-10-07T10:12:38Z
2020-10-07T08:14:48Z,42.805,6.029,13.2974,4.59981,2470.18,2020-10-07T10:15:42Z
2020-10-07T08:17:51Z,42.805,6.029,13.2974,4.59987,2470.24,2020-10-07T10:18:45Z
2020-10-07T08:20:54Z,42.805,6.029,13.2975,4.59988,2470.194,2020-10-07T10:21:48Z
2020-10-07T08:23:58Z,42.805,6.029,13.2971,4.59986,2470.203,2020-10-07T10:24:51Z
2020-10-07T08:27:01Z,42.805,6.029,13.2972,4.59986,2470.24,2020-10-07T10:27:54Z
2020-10-07T08:30:04Z,42.805,6.029,13.2975,4.59985,2470.227,2020-10-07T10:30:57Z
2020-10-07T08:33:07Z,42.805,6.029,13.2974,4.59986,2470.217,2020-10-07T10:34:00Z
2020-10-07T08:36:10Z,42.805,6.029,13.2974,4.59986,2470.227,2020-10-07T10:37:03Z
2020-10-07T08:39:13Z,42.805,6.029,13.2974,4.59983,2470.203,2020-10-07T10:40:07Z
2020-10-07T08:42:16Z,42.805,6.029,13.2971,4.59982,2470.203,2020-10-07T10:43:10Z
2020-10-07T08:45:19Z,42.805,6.029,13.2972,4.59981,2470.203,2020-10-07T10:46:13Z
2020-10-07T08:48:23Z,42.805,6.029,13.2974,4.59986,2470.217,2020-10-07T10:49:16Z
2020-10-07T08:51:26Z,42.805,6.029,13.2971,4.59981,2470.25,2020-10-07T10:52:19Z
2020-10-07T08:54:29Z,42.805,6.029,13.2970,4.59981,2470.25,2020-10-07T10:55:22Z
2020-10-07T08:57:32Z,42.805,6.029,13.2972,4.59982,2470.227,2020-10-07T10:58:25Z
2020-10-07T09:00:35Z,42.805,6.029,13.2970,4.59983,2470.203,2020-10-07T11:01:28Z
2020-10-07T09:03:38Z,42.805,6.029,13.2973,4.59983,2470.227,2020-10-07T11:04:32Z
2020-10-07T09:06:41Z,42.805,6.029,13.2974,4.59986,2470.227,2020-10-07T11:07:35Z
2020-10-07T09:09:44Z,42.805,6.029,13.2975,4.59981,2470.227,2020-10-07T11:10:38Z
2020-10-07T09:12:48Z,42.805,6.029,13.2971,4.59982,2470.25,2020-10-07T11:13:41Z
2020-10-07T09:15:51Z,42.805,6.029,13.2973,4.59979,2470.227,2020-10-07T11:16:44Z
2020-10-07T09:18:54Z,42.805,6.029,13.2972,4.59983,2470.227,2020-10-07T11:19:47Z
2020-10-07T09:21:57Z,42.805,6.029,13.2971,4.59980,2470.25,2020-10-07T11:22:50Z
2020-10-07T09:25:00Z,42.805,6.029,13.2973,4.59979,2470.24,2020-10-07T11:25:53Z
2020-10-07T09:28:03Z,42.805,6.029,13.2973,4.59979,2470.264,2020-10-07T11:28:57Z
2020-10-07T09:31:06Z,42.805,6.029,13.2974,4.59981,2470.236,2020-10-07T11:32:00Z
2020-10-07T09:34:09Z,42.805,6.029,13.2973,4.59979,2470.25,2020-10-07T11:35:03Z
2020-10-07T09:37:13Z,42.805,6.029,13.2974,4.59980,2470.25,2020-10-07T11:38:06Z
2020-10-07T09:40:16Z,42.805,6.029,13.2972,4.59980,2470.227,2020-10-07T11:41:09Z
2020-10-07T09:43:19Z,42.805,6.029,13.2972,4.59984,2470.25,2020-10-07T11:44:12Z
2020-10-07T09:46:22Z,42.805,6.029,13.2976,4.59981,2470.227,2020-10-07T11:47:15Z
2020-10-07T09:49:25Z,42.805,6.029,13.2974,4.59981,2470.227,2020-10-07T11:50:18Z
2020-10-07T09:52:28Z,42.805,6.029,13.2974,4.59981,2470.273,2020-10-07T11:53:22Z
2020-10-07T09:55:31Z,42.805,6.029,13.2972,4.59981,2470.227,2020-10-07T11:56:25Z
2020-10-07T09:58:34Z,42.805,6.029,13.2972,4.59984,2470.25,2020-10-07T11:59:28Z
2020-10-07T10:01:38Z,42.805,6.029,13.2975,4.59982,2470.273,2020-10-07T12:02:31Z
2020-10-07T10:04:41Z,42.805,6.029,13.2973,4.59986,2470.287,2020-10-07T12:05:34Z
2020-10-07T10:07:44Z,42.805,6.029,13.2973,4.59981,2470.227,2020-10-07T12:08:37Z
2020-10-07T10:10:47Z,42.805,6.029,13.2972,4.59982,2470.227,2020-10-07T12:11:40Z
2020-10-07T10:13:50Z,42.805,6.029,13.2969,4.59986,2470.25,2020-10-07T12:14:43Z
2020-10-07T10:16:53Z,42.805,6.029,13.2974,4.59979,2470.25,2020-10-07T12:17:47Z
2020-10-07T10:19:56Z,42.805,6.029,13.2975,4.59978,2470.273,2020-10-07T12:20:50Z
2020-10-07T10:22:59Z,42.805,6.029,13.2973,4.59981,2470.227,2020-10-07T12:23:53Z
2020-10-07T10:26:02Z,42.805,6.029,13.2976,4.59976,2470.287,2020-10-07T12:26:56Z
2020-10-07T10:29:06Z,42.805,6.029,13.2980,4.59978,2470.273,2020-10-07T12:29:59Z
2020-10-07T10:32:09Z,42.805,6.029,13.2979,4.59977,2470.264,2020-10-07T12:33:02Z
2020-10-07T10:35:12Z,42.805,6.029,13.2975,4.59976,2470.273,2020-10-07T12:36:05Z
2020-10-07T10:38:15Z,42.805,6.029,13.2977,4.59977,2470.264,2020-10-07T12:39:08Z
2020-10-07T10:41:18Z,42.805,6.029,13.2971,4.59978,2470.217,2020-10-07T12:42:11Z
2020-10-07T10:44:21Z,42.805,6.029,13.2976,4.59979,2470.273,2020-10-07T12:45:15Z
2020-10-07T10:47:24Z,42.805,6.029,13.2977,4.59978,2470.264,2020-10-07T12:48:18Z
2020-10-07T10:50:27Z,42.805,6.029,13.2974,4.59976,2470.264,2020-10-07T12:51:21Z
2020-10-07T10:53:31Z,42.805,6.029,13.2974,4.59978,2470.24,2020-10-07T12:54:24Z
2020-10-07T10:56:34Z,42.805,6.029,13.2970,4.59978,2470.217,2020-10-07T12:57:27Z
2020-10-07T10:59:37Z,42.805,6.029,13.2974,4.59976,2470.25,2020-10-07T13:00:30Z
2020-10-07T11:02:40Z,42.805,6.029,13.2970,4.59977,2470.264,2020-10-07T13:03:33Z
2020-10-07T11:05:43Z,42.805,6.029,13.2975,4.59978,2470.227,2020-10-07T13:06:37Z
2020-10-07T11:08:46Z,42.805,6.029,13.2974,4.59978,2470.24,2020-10-07T13:09:40Z
2020-10-07T11:11:49Z,42.805,6.029,13.2977,4.59979,2470.25,2020-10-07T13:12:43Z
2020-10-07T11:14:52Z,42.805,6.029,13.2979,4.59996,2470.264,2020-10-07T13:15:46Z
2020-10-07T11:17:56Z,42.805,6.029,13.2977,4.59983,2470.25,2020-10-07T13:18:49Z
2020-10-07T11:20:59Z,42.805,6.029,13.2976,4.59985,2470.25,2020-10-07T13:21:52Z
2020-10-07T11:24:02Z,42.805,6.029,13.2974,4.59992,2470.264,2020-10-07T13:24:55Z
2020-10-07T11:27:05Z,42.805,6.029,13.2975,4.59997,2470.203,2020-10-07T13:27:58Z
2020-10-07T11:30:08Z,42.805,6.029,13.2979,4.59982,2470.227,2020-10-07T13:31:01Z
2020-10-07T11:33:11Z,42.805,6.029,13.2977,4.59981,2470.227,2020-10-07T13:34:05Z
2020-10-07T11:36:14Z,42.805,6.029,13.2976,4.59981,2470.24,2020-10-07T13:37:08Z
2020-10-07T11:39:17Z,42.805,6.029,13.2982,4.59986,2470.227,2020-10-07T13:40:11Z
2020-10-07T11:42:21Z,42.805,6.029,13.2979,4.59995,2470.227,2020-10-07T13:43:14Z
2020-10-07T11:45:24Z,42.805,6.029,13.2979,4.60003,2470.227,2020-10-07T13:46:17Z
2020-10-07T11:48:27Z,42.805,6.029,13.2978,4.59996,2470.203,2020-10-07T13:49:20Z
2020-10-07T11:51:30Z,42.805,6.029,13.2982,4.60005,2470.227,2020-10-07T13:52:23Z
2020-10-07T11:54:33Z,42.805,6.029,13.2976,4.60017,2470.217,2020-10-07T13:55:26Z
2020-10-07T11:57:36Z,42.805,6.029,13.2979,4.60009,2470.25,2020-10-07T13:58:30Z
2020-10-07T12:00:39Z,42.805,6.029,13.2983,4.59999,2470.227,2020-10-07T14:01:33Z
2020-10-07T12:03:42Z,42.805,6.029,13.2975,4.60011,2470.203,2020-10-07T14:04:36Z
2020-10-07T12:06:46Z,42.805,6.029,13.2978,4.60028,2470.217,2020-10-07T14:07:39Z
2020-10-07T12:09:49Z,42.805,6.029,13.2982,4.60029,2470.264,2020-10-07T14:10:42Z
2020-10-07T12:12:52Z,42.805,6.029,13.2983,4.60007,2470.227,2020-10-07T14:13:45Z
2020-10-07T12:15:55Z,42.805,6.029,13.2993,4.60024,2470.203,2020-10-07T14:16:48Z
2020-10-07T12:18:58Z,42.805,6.029,13.3008,4.60054,2470.213,2020-10-07T14:19:51Z
2020-10-07T12:22:01Z,42.805,6.029,13.2981,4.60076,2470.203,2020-10-07T14:22:55Z
2020-10-07T12:25:04Z,42.805,6.029,13.2979,4.60088,2470.203,2020-10-07T14:25:58Z
2020-10-07T12:28:07Z,42.805,6.029,13.2983,4.60084,2470.18,2020-10-07T14:29:01Z
2020-10-07T12:31:11Z,42.805,6.029,13.2999,4.60046,2470.203,2020-10-07T14:32:04Z
2020-10-07T12:34:14Z,42.805,6.029,13.3009,4.60039,2470.156,2020-10-07T14:35:07Z
2020-10-07T12:37:17Z,42.805,6.029,13.3016,4.60054,2470.156,2020-10-07T14:38:10Z
2020-10-07T12:40:20Z,42.805,6.029,13.3025,4.60059,2470.156,2020-10-07T14:41:13Z
2020-10-07T12:43:23Z,42.805,6.029,13.3038,4.60059,2470.203,2020-10-07T14:44:16Z
2020-10-07T12:46:26Z,42.805,6.029,13.3047,4.60039,2470.156,2020-10-07T14:47:20Z
2020-10-07T12:49:29Z,42.805,6.029,13.3054,4.60017,2470.203,2020-10-07T14:50:23Z
2020-10-07T12:52:32Z,42.805,6.029,13.3051,4.60017,2470.156,2020-10-07T14:53:26Z
2020-10-07T12:55:35Z,42.805,6.029,13.3060,4.60021,2470.194,2020-10-07T14:56:29Z
2020-10-07T12:58:39Z,42.805,6.029,13.3049,4.60020,2470.194,2020-10-07T14:59:32Z
2020-10-07T13:01:42Z,42.805,6.029,13.3051,4.60018,2470.203,2020-10-07T15:02:35Z
2020-10-07T13:04:45Z,42.805,6.029,13.3058,4.60026,2470.194,2020-10-07T15:05:38Z
2020-10-07T13:07:48Z,42.805,6.029,13.3056,4.60010,2470.18,2020-10-07T15:08:41Z
2020-10-07T13:10:51Z,42.805,6.029,13.3047,4.60011,2470.18,2020-10-07T15:11:44Z
2020-10-07T13:13:54Z,42.805,6.029,13.3046,4.60015,2470.18,2020-10-07T15:14:48Z
2020-10-07T13:16:57Z,42.805,6.029,13.3069,4.60006,2470.147,2020-10-07T15:17:51Z
2020-10-07T13:20:00Z,42.805,6.029,13.3058,4.60017,2470.171,2020-10-07T15:20:54Z
2020-10-07T13:23:04Z,42.805,6.029,13.3044,4.60014,2470.18,2020-10-07T15:23:57Z
2020-10-07T13:26:07Z,42.805,6.029,13.3036,4.60024,2470.194,2020-10-07T15:27:00Z
2020-10-07T13:29:10Z,42.805,6.029,13.3054,4.60018,2470.194,2020-10-07T15:30:03Z
2020-10-07T13:32:13Z,42.805,6.029,13.3042,4.60013,2470.203,2020-10-07T15:33:06Z
2020-10-07T13:35:16Z,42.805,6.029,13.3034,4.60007,2470.18,2020-10-07T15:36:10Z
2020-10-07T13:38:19Z,42.805,6.029,13.3031,4.60036,2470.194,2020-10-07T15:39:13Z
2020-10-07T13:41:22Z,42.805,6.029,13.3031,4.60019,2470.194,2020-10-07T15:42:16Z
2020-10-07T13:44:25Z,42.805,6.029,13.3029,4.60015,2470.171,2020-10-07T15:45:19Z
2020-10-07T13:47:29Z,42.805,6.029,13.3035,4.60013,2470.171,2020-10-07T15:48:22Z
2020-10-07T13:50:32Z,42.805,6.029,13.3043,4.60011,2470.171,2020-10-07T15:51:25Z
2020-10-07T13:53:35Z,42.805,6.029,13.3051,4.60010,2470.156,2020-10-07T15:54:28Z
2020-10-07T13:56:38Z,42.805,6.029,13.3031,4.60014,2470.194,2020-10-07T15:57:31Z
2020-10-07T13:59:41Z,42.805,6.029,13.3030,4.60006,2470.171,2020-10-07T16:00:35Z
2020-10-07T14:02:44Z,42.805,6.029,13.3039,4.60017,2470.156,2020-10-07T16:03:38Z
2020-10-07T14:05:47Z,42.805,6.029,13.3025,4.60020,2470.156,2020-10-07T16:06:41Z
2020-10-07T14:08:50Z,42.805,6.029,13.3031,4.60021,2470.18,2020-10-07T16:09:44Z
2020-10-07T14:11:54Z,42.805,6.029,13.3031,4.60033,2470.133,2020-10-07T16:12:47Z
2020-10-07T14:14:57Z,42.805,6.029,13.3021,4.60032,2470.18,2020-10-07T16:15:50Z
2020-10-07T14:18:00Z,42.805,6.029,13.3028,4.60035,2470.171,2020-10-07T16:18:53Z
2020-10-07T14:21:03Z,42.805,6.029,13.3052,4.60030,2470.194,2020-10-07T16:21:56Z
2020-10-07T14:24:06Z,42.805,6.029,13.3036,4.60038,2470.171,2020-10-07T16:24:59Z
2020-10-07T14:27:09Z,42.805,6.029,13.3034,4.60031,2470.147,2020-10-07T16:28:03Z
2020-10-07T14:30:12Z,42.805,6.029,13.2999,4.60028,2470.171,2020-10-07T16:31:06Z
2020-10-07T14:33:15Z,42.805,6.029,13.3000,4.60081,2470.133,2020-10-07T16:34:09Z
2020-10-07T14:36:19Z,42.805,6.029,13.2988,4.60091,2470.133,2020-10-07T16:37:12Z
2020-10-07T14:39:22Z,42.805,6.029,13.3001,4.60060,2470.147,2020-10-07T16:40:15Z
2020-10-07T14:42:25Z,42.805,6.029,13.3049,4.60047,2470.133,2020-10-07T16:43:18Z
2020-10-07T14:45:28Z,42.805,6.029,13.3041,4.60022,2470.133,2020-10-07T16:46:21Z
2020-10-07T14:48:31Z,42.805,6.029,13.3029,4.60036,2470.11,2020-10-07T16:49:24Z
2020-10-07T14:51:34Z,42.805,6.029,13.3034,4.60040,2470.147,2020-10-07T16:52:28Z
2020-10-07T14:54:37Z,42.805,6.029,13.3043,4.60011,2470.18,2020-10-07T16:55:31Z
2020-10-07T14:57:40Z,42.805,6.029,13.3039,4.60018,2470.147,2020-10-07T16:58:34Z
2020-10-07T15:00:44Z,42.805,6.029,13.3029,4.60019,2470.147,2020-10-07T17:01:37Z